Home > Weather > Stockton > Past weeks

Flag for USA Past Weather in Stockton, California, USA — Yesterday and Last 2 Weeks

Now
72 °F

Clear.


Feels Like: 77 °F
Forecast: 60 / 98 °F
Wind: 10 mph from West

Location: Stockton Metropolitan Airport

Current Time: May 31, 2016 at 1:00:56 AM

Latest Report: May 30, 2016 at 11:55 PM


Visibility: 10 mi

Pressure: 29.84 "Hg

Humidity: 38%

Dew Point: 45 °F

Location of StocktonLocation

Past Weather in Stockton — Graph

°F

Stockton Temperature Yesterday

Maximum temperature yesterday: 95 °F (at 2:55 PM)
Minimum temperature yesterday: 57 °F (at 4:55 AM)
Average temperature yesterday: 76 °F

High & Low Weather Summary for the Past Weeks

 TemperatureHumidityPressure
High95 °F (May 18, 4:55 PM)89% (May 22, 5:55 AM)30.10 "Hg (May 22, 5:55 AM)
Low47 °F (May 21, 5:55 AM)15% (May 28, 5:55 PM)29.70 "Hg (May 19, 8:55 PM)
Average68 °F52%29.90 "Hg
* Reported May 15 10:55 PM — May 30 10:55 PM, Stockton, Weather by CustomWeather, © 2016

Note: Actual official high and low records may vary slightly from our data, if they occured in-between our weather recording intervals... More about our weather records

Advertising

Stockton Weather History for the Previous 24 Hours

Scroll right to see more
 ConditionsComfort  
Time TempWeatherWind HumidityBarometerVisibility
10:55 PM
Mon, May 30
74 °FClear.10 mph37%29.86 "Hg10 mi
9:55 PM76 °FClear.10 mph37%29.86 "Hg10 mi
8:55 PM80 °FSunny.10 mph42%29.85 "Hg10 mi
7:55 PM86 °FSunny.14 mph31%29.84 "Hg10 mi
6:55 PM90 °FSunny.12 mph27%29.83 "Hg10 mi
5:55 PM95 °FSunny.13 mph15%29.84 "Hg10 mi
4:55 PM95 °FSunny.15 mph20%29.85 "Hg10 mi
3:55 PM95 °FSunny.14 mph22%29.86 "Hg10 mi
2:55 PM95 °FSunny.9 mph21%29.88 "Hg10 mi
1:55 PM92 °FSunny.8 mph23%29.90 "Hg10 mi
12:55 PM89 °FSunny.7 mph27%29.92 "Hg10 mi
11:55 AM85 °FSunny.7 mph32%29.94 "Hg10 mi
10:55 AM79 °FSunny.5 mph42%29.95 "Hg10 mi
9:55 AM74 °FSunny.6 mph52%29.96 "Hg10 mi
8:55 AM71 °FSunny.6 mph53%29.96 "Hg10 mi
7:55 AM67 °FSunny.9 mph61%29.94 "Hg10 mi
6:55 AM61 °FSunny.3 mph67%29.93 "Hg10 mi
5:55 AM58 °FClear.No wind75%29.92 "Hg10 mi
4:55 AM57 °FClear.3 mph72%29.91 "Hg10 mi
3:55 AM58 °FClear.8 mph70%29.91 "Hg10 mi
2:55 AM58 °FClear.5 mph72%29.91 "Hg10 mi
1:55 AM58 °FClear.5 mph75%29.92 "Hg10 mi
Weather by CustomWeather, © 2016

See weather overviewHow to use our weather pages